Weather History for Valentine, NE

Change the Weather History Date:

Monday, March 31, 2014

  Actual Average Record
Temperature  
Mean Temperature 35 °F 41 °F  
Max Temperature 52 °F 54 °F 87 °F (1946)
Min Temperature 18 °F 28 °F -3 °F (1899)
Degree Days  
Heating Degree Days 30 24  
Month to date heating degree days 969 892  
Since 1 July heating degree days 6447 6129  
Cooling Degree Days 0 0  
Month to date cooling degree days 0 0  
Year to date cooling degree days 0 0  
Moisture  
Dew Point 21 °F    
Average Humidity 69    
Maximum Humidity 92    
Minimum Humidity 46    
Precipitation  
Precipitation T in 0.05 in 1.07 in (1897)
Month to date precipitation 0.49 1.07  
Year to date precipitation 1.15 1.81  
Snow  
Snow T in 0.20 in 6.60 in (1896)
Month to date snowfall 5.0 6.5  
Since 1 July snowfall 31.5 28.6  
Snow Depth 0.00 in    
Sea Level Pressure  
Sea Level Pressure 29.70 in    
Wind  
Wind Speed 24 mph (NNW)    
Max Wind Speed 40 mph    
Max Gust Speed 52 mph    
Visibility 4 miles    
Events Snow    
T = Trace of Precipitation, MM = Missing Value Source: NWS Daily Summary

Daily Weather History Graph

Daily Weather History Graph

Search for Another Location

Airport:

Trip Planner

Search our weather history database for the weather conditions in past years. The results will help you decide how hot, cold, wet, or windy it might be!

Date:

Astronomy

Mar. 31, 2014 Rise Set
Actual Time 7:26 AM CDT 8:07 PM CDT
Civil Twilight 6:57 AM CDT 8:35 PM CDT
Nautical Twilight 6:23 AM CDT 9:09 PM CDT
Astronomical Twilight 5:48 AM CDT 9:44 PM CDT
Moon 7:49 AM CDT (3/31) 9:30 PM CDT (3/31)
Length of Visible Light 13h 38m
Length of Day
12h 41m
New Moon, 1% of the Moon is Illuminated
Mar 31
New Moon
Apr 7
First Quarter
Apr 15
Full
Apr 22
Last Quarter
Apr 29
New

Hourly Weather History & Observations

Time (CDT) Temp. Windchill Dew Point Humidity Pressure Visibility Wind Dir Wind Speed Gust Speed Precip Events Conditions
12:52 AM 53.1 °F - 33.1 °F 47% 29.37 in 10.0 mi ENE 11.5 mph - N/A   Partly Cloudy
1:52 AM 50.0 °F - 33.1 °F 52% 29.38 in 10.0 mi NNW 9.2 mph - N/A   Clear
2:52 AM 46.0 °F 42.5 °F 33.1 °F 61% 29.34 in 10.0 mi NNE 6.9 mph - N/A   Clear
3:52 AM 43.0 °F 38.2 °F 34.0 °F 71% 29.31 in 10.0 mi NE 8.1 mph - N/A   Clear
4:52 AM 39.9 °F 32.9 °F 35.1 °F 83% 29.34 in 8.0 mi NNW 11.5 mph - N/A   Clear
5:01 AM 39.9 °F 32.1 °F 36.0 °F 86% 29.36 in 5.0 mi NNW 13.8 mph - N/A   Scattered Clouds
5:09 AM 39.9 °F 31.4 °F 37.0 °F 89% 29.37 in 5.0 mi NNW 16.1 mph 23.0 mph N/A   Mostly Cloudy
5:52 AM 35.1 °F 23.3 °F 33.1 °F 92% 29.37 in 2.5 mi NNW 23.0 mph 31.1 mph N/A   Overcast
6:00 AM 35.1 °F 24.8 °F 33.1 °F 92% 29.37 in 2.0 mi North 17.3 mph 32.2 mph N/A   Overcast
6:15 AM 34.0 °F 22.1 °F 32.0 °F 92% 29.39 in 1.5 mi NNW 21.9 mph 31.1 mph N/A   Overcast
6:52 AM 32.0 °F 18.6 °F 30.0 °F 92% 29.42 in 1.0 mi NNW 25.3 mph 36.8 mph N/A   Overcast
7:43 AM 30.0 °F 16.6 °F 28.9 °F 96% 29.48 in 0.8 mi NNW 23.0 mph 39.1 mph N/A   Overcast
7:52 AM 30.0 °F 14.9 °F 28.9 °F 96% 29.49 in 1.0 mi NNW 29.9 mph 36.8 mph N/A   Overcast
7:59 AM 30.0 °F 16.3 °F 28.0 °F 92% 29.48 in 0.8 mi NNW 24.2 mph 38.0 mph N/A   Overcast
8:15 AM 30.0 °F 14.9 °F 28.0 °F 92% 29.49 in 1.0 mi NNW 29.9 mph 39.1 mph N/A   Overcast
8:35 AM 30.0 °F 16.0 °F 28.0 °F 92% 29.50 in 1.2 mi NNW 25.3 mph 40.3 mph N/A   Overcast
8:52 AM 28.9 °F 14.5 °F 27.0 °F 92% 29.55 in 1.5 mi NNW 25.3 mph 44.9 mph N/A   Overcast
9:12 AM 28.9 °F 14.5 °F 27.0 °F 92% 29.53 in 2.0 mi NNW 25.3 mph 41.4 mph N/A   Overcast
9:48 AM 28.4 °F 12.5 °F 26.6 °F 93% 29.54 in 3.0 mi NNW 31.1 mph 47.2 mph N/A   Overcast
9:52 AM 28.9 °F 13.0 °F 26.1 °F 89% 29.58 in 3.0 mi NNW 32.2 mph 46.0 mph N/A   Overcast
10:19 AM 27.0 °F 11.0 °F 24.1 °F 89% 29.60 in 2.5 mi NW 28.8 mph 36.8 mph 0.00 in   Overcast
10:26 AM 26.1 °F 10.4 °F 23.0 °F 88% 29.60 in 2.0 mi NW 26.5 mph 41.4 mph 0.00 in   Overcast
10:33 AM 25.0 °F 9.2 °F 21.9 °F 88% 29.61 in 3.0 mi NW 25.3 mph 39.1 mph 0.00 in   Overcast
10:52 AM 23.0 °F 4.9 °F 18.0 °F 81% 29.68 in 8.0 mi WNW 32.2 mph 44.9 mph 0.00 in   Overcast
11:52 AM 19.9 °F 1.0 °F 15.1 °F 81% 29.73 in 5.0 mi NW 31.1 mph 43.7 mph 0.00 in   Overcast
12:52 PM 19.9 °F 1.8 °F 14.0 °F 78% 29.75 in 2.5 mi NW 27.6 mph 39.1 mph 0.00 in Snow Light Snow
12:59 PM 19.9 °F 0.7 °F 12.9 °F 74% 29.70 in 1.2 mi NW 32.2 mph 42.6 mph 0.00 in Snow Light Snow
1:04 PM 19.9 °F 3.5 °F 12.0 °F 71% 29.70 in 4.0 mi NW 21.9 mph 42.6 mph 0.00 in Snow Light Snow
1:22 PM 19.9 °F 1.3 °F 12.0 °F 71% 29.71 in 5.0 mi NW 29.9 mph 44.9 mph 0.00 in Snow Light Snow
1:52 PM 21.0 °F 2.7 °F 12.9 °F 71% 29.77 in 2.0 mi NW 29.9 mph 41.4 mph 0.00 in Snow Light Snow
2:07 PM 19.0 °F 0.3 °F 10.9 °F 71% 29.72 in 1.2 mi NW 28.8 mph 42.6 mph 0.00 in Snow Light Snow
2:17 PM 19.0 °F -0.3 °F 10.9 °F 71% 29.73 in 0.8 mi NW 31.1 mph 47.2 mph 0.00 in Snow Light Snow
2:39 PM 19.0 °F 0.0 °F 12.0 °F 74% 29.74 in 1.2 mi NW 29.9 mph 41.4 mph 0.00 in Snow Light Snow
2:52 PM 19.9 °F 2.2 °F 14.0 °F 78% 29.81 in 1.2 mi NW 26.5 mph 40.3 mph 0.00 in Snow Light Snow
3:02 PM 21.0 °F 3.9 °F 14.0 °F 74% 29.74 in 1.0 mi NW 25.3 mph 43.7 mph 0.00 in Snow Light Snow
3:36 PM 21.9 °F 3.4 °F 14.0 °F 72% 29.76 in 1.5 mi NW 32.2 mph 48.3 mph 0.00 in Snow Light Snow
3:52 PM 23.0 °F 5.4 °F 14.0 °F 68% 29.84 in 2.0 mi NNW 29.9 mph 47.2 mph 0.00 in Snow Light Snow
3:56 PM 21.9 °F 3.9 °F 16.0 °F 78% 29.77 in 1.0 mi NW 29.9 mph 47.2 mph 0.00 in Snow Light Snow
4:08 PM 23.0 °F 6.9 °F 16.0 °F 74% 29.79 in 2.0 mi NNW 24.2 mph 44.9 mph 0.00 in Snow Light Snow
4:50 PM 24.8 °F 7.6 °F 15.8 °F 69% 29.82 in 4.0 mi NNW 31.1 mph 46.0 mph 0.00 in Snow Light Snow
4:52 PM 24.1 °F 7.1 °F 15.1 °F 69% 29.89 in 4.0 mi NW 28.8 mph 46.0 mph 0.00 in Snow Light Snow
5:06 PM 23.0 °F 4.6 °F 15.1 °F 72% 29.82 in 2.5 mi NNW 33.4 mph 51.8 mph 0.00 in Snow Light Snow
5:13 PM 23.0 °F 5.4 °F 15.1 °F 72% 29.83 in 5.0 mi NNW 29.9 mph 43.7 mph 0.00 in   Overcast
5:22 PM 24.1 °F 6.9 °F 17.1 °F 75% 29.84 in 1.8 mi NW 29.9 mph 46.0 mph 0.00 in Snow Light Snow
5:38 PM 24.1 °F 6.9 °F 16.0 °F 71% 29.85 in 2.5 mi NNW 29.9 mph 43.7 mph 0.00 in   Overcast
5:45 PM 24.1 °F 7.1 °F 17.1 °F 75% 29.86 in 4.0 mi NW 28.8 mph 42.6 mph 0.00 in   Overcast
5:52 PM 24.1 °F 5.9 °F 16.0 °F 71% 29.94 in 2.5 mi NW 34.5 mph 49.5 mph 0.00 in Snow Light Snow
6:02 PM 24.1 °F 8.7 °F 17.1 °F 75% 29.88 in 3.0 mi NW 23.0 mph 44.9 mph 0.00 in   Overcast
6:08 PM 24.1 °F 7.1 °F 18.0 °F 77% 29.89 in 1.8 mi NW 28.8 mph 38.0 mph 0.00 in Snow Light Snow
6:17 PM 24.1 °F 7.7 °F 17.1 °F 75% 29.89 in 3.0 mi NW 26.5 mph 42.6 mph 0.00 in Snow Light Snow
6:28 PM 24.1 °F 7.1 °F 17.1 °F 75% 29.90 in 2.5 mi NW 28.8 mph 41.4 mph 0.00 in   Overcast
6:37 PM 24.1 °F 7.1 °F 17.1 °F 75% 29.90 in 6.0 mi NW 28.8 mph 41.4 mph 0.00 in   Haze
6:52 PM 25.0 °F 8.4 °F 18.0 °F 75% 30.00 in 5.0 mi NW 28.8 mph 39.1 mph 0.00 in   Haze
7:52 PM 25.0 °F 8.4 °F 18.0 °F 75% 30.03 in 10.0 mi NW 28.8 mph 48.3 mph N/A   Overcast
8:52 PM 24.1 °F 8.0 °F 17.1 °F 75% 30.07 in 10.0 mi NW 25.3 mph 32.2 mph N/A   Mostly Cloudy
9:13 PM 24.1 °F 9.4 °F 17.1 °F 75% 30.00 in 10.0 mi NW 20.7 mph 35.7 mph N/A   Scattered Clouds
9:52 PM 24.1 °F 10.1 °F 15.1 °F 69% 30.12 in 10.0 mi NW 18.4 mph 27.6 mph N/A   Overcast
10:52 PM 23.0 °F 9.2 °F 14.0 °F 68% 30.16 in 10.0 mi NW 17.3 mph 24.2 mph N/A   Clear
11:52 PM 21.0 °F 6.6 °F 12.0 °F 68% 30.17 in 10.0 mi NW 17.3 mph 21.9 mph N/A   Clear